CZ-2D DEB, 44612

Orbit data source: Space-Track

CZ-2D DEB, 44612 is space debris in SSO originally from a launch on Mon, 09 Oct 2017 UTC launched from the Jiuquan Satellite Launch Center, China (JSC). Debris objects in space refer to the collection of defunct objects orbiting the Earth. Examples of debris include non-operational satellites, rocket bodies, and fragments generated from explosions, collisions, or faulty payload assembly.

Loading next visibility...
Identifier
44612, 2017-060E
Orbit
SSO
Last TLE update
21 hours ago
Origin
Manufacturer
Unknown
Mission
Spacecraft
Bus & Motor
Unknown
Mass
Unknown
Launch date (UTC)
2017-10-09 (8 years ago)
Launch vehicle
Unknown
Launch site
Jiuquan Satellite Launch Center, China (JSC)
Object type
Payload
Rocket body
Debris
Shape & HBR
Unknown
Radar Cross Section
Small (<0.1 m²)

Expand to show TLE details & history

TLE from 21 hours ago
0 CZ-2D DEB
1 44612U 17060E   25181.48659139  .00002215  00000-0  23128-3 0  9992
2 44612  97.5914 192.8649 0011193 179.4980 180.6252 14.90635331414420
Epoch: 2025-06-30T11:40Z
TLE epoch observation values (Epoch: 2025-06-30T11:40:41.496Z)
Latitude
0.00002°
Longitude
98.8963°
Altitude
606.806 km
Speed
7.552 km/s
True Right ascension
12h 51m 27s
True Declination
0° 00' 00"
Sunlit
Object was in daylight at epoch
Visualization orbit readout
Latitude
-18.00169°
Longitude
102.20061°
Altitude
610.573 km
Speed
7.549 km/s
Apparent Right ascension
11h 03m 27s
Apparent Declination
-33° 44' 20"
Sunlit
Object is in daylight
Visualization observer readout
Local Sidereal Time
20:10:35
Azimuth
266.268° W
Elevation
-55.203°
Doppler factor
1
Orbital elements
Apogee altitude
600.769 km
Perigee altitude
585.164 km
Semi-major axis
6,971.103 km
Eccentricity
0.00112
Inclination
97.5914°
RAAN
192.8649°
Arg. of periapsis
179.498°
True anomaly
Unknown
Mean anomaly
180.6252°
Eccentric anomaly
Unknown
Mean motion
3.72899 °/min
Orbital period
96.54 mins
BSTAR
0.00023128
Loading maneuver chart data...
Loading SW <> Apogee altitude chart data...
Loading historical data...
Loading historical data...
Loading historical data...
Loading historical data...
Loading historical data...
Loading historical data...
Loading historical data...
Other satellites on launch #60 in the year 2017 (2017-10-09 UTC)

CZ-2D DEB Visibility forecast

Observer location: undefined°, undefined°

Span
Click to sort rows by Start time (UTC) header in descending order
Start Az.
Max El. time (UTC)
Max El. Az.
Max El.
End time (UTC)
End Az.
6 mins2025-07-01 14:02:26.963Z347.717° N2025-07-01 14:04:26.963Z288.738° WNW36.74°2025-07-01 14:08:26.963Z212.253° SW
6 mins2025-07-02 00:52:26.963Z172.066° S2025-07-02 00:54:26.963Z202.267° SSW44.144°2025-07-02 00:58:26.963Z345.661° N
|